Location: ??????
(55.0357°N, 38.6195°E)
Time: 04:18:40
(UTC+00:00)

Cosmos 1743 Rocket - Visible Passes

Search period start: 25 July 2024 00:00
Search period end: 04 August 2024 00:00
Orbit: 601 x 628 km, 82.6° (Epoch: 24 July)

Date Brightness Start Highest point End Pass type
(mag) Time Alt. Az. Time Alt. Az. Time Alt. Az.
25 Jul 4.5 23:56:26 10° SSE 00:00:42 47° E 00:04:57 10° NNE visible
26 Jul 6.2 22:38:01 10° E 22:39:40 12° E 22:41:18 10° ENE visible
27 Jul 3.7 00:12:13 10° S 00:16:39 77° E 00:21:04 10° NNE visible
27 Jul 5.9 22:52:19 10° SE 22:55:21 19° E 22:58:24 10° NE visible
28 Jul 3.7 00:28:16 10° SSW 00:32:40 68° WNW 00:37:05 10° N visible
28 Jul 5.2 23:07:21 10° SSE 23:11:08 28° E 23:14:54 10° NNE visible
29 Jul 4.5 23:22:57 11° SSE 23:26:59 44° E 23:31:11 10° NNE visible
30 Jul 6.2 22:04:44 10° E 22:05:58 11° ENE 22:07:13 10° ENE visible
30 Jul 3.7 23:39:06 14° S 23:42:55 72° E 23:47:18 10° NNE visible
31 Jul 5.8 22:18:46 10° SE 22:21:39 17° E 22:24:32 10° NE visible
31 Jul 3.6 23:55:14 14° SSW 23:58:55 72° WNW 00:03:19 10° N visible
01 Aug 5.2 22:34:16 13° SE 22:37:24 27° E 22:41:05 10° NNE visible
02 Aug 4.1 00:11:20 13° SW 00:15:00 45° WNW 00:19:14 10° N visible
02 Aug 4.5 22:50:21 18° SSE 22:53:14 41° E 22:57:22 10° NNE visible
03 Aug 4.7 00:27:26 11° SW 00:31:09 29° WNW 00:35:01 10° N visible
03 Aug 6.2 21:31:38 10° E 21:32:15 10° ENE 21:32:52 10° ENE visible
03 Aug 3.7 23:06:26 22° S 23:09:09 67° E 23:13:30 10° NNE visible
